Location: Beadle
(51.4667°N, 109.0000°W)
Time: 18:39:11
(UTC+00:00)

O/OREOS (USA 219) - Pass Details

Date: 30 June 2022
Orbit: 621 x 646 km, 72.0° (Epoch: 22 May)

Event Time Altitude Azimuth Distance (km) Brightness Sun altitude
Rises 08:29:05 0° 325° (NW) 2,965 ? -13.8°
Reaches altitude 10° 08:31:33 10° 315° (NW) 2,053 ? -13.7°
Maximum altitude 08:35:36 31° 254° (WSW) 1,128 ? -13.5°
Enters shadow 08:37:50 21° 208° (SSW) 1,466 ? -13.4°
